Regional Weather Roundup
Issued by NWS Upton, NY

Current Version | Previous Version | Graphics & Text | Print | Product List | Glossary Off
Versions: 1 2 3 4 5 6 7 8 9 10 11 12 13 14 15 16 17 18 19 20 21 22 23 24 25 26 27 28 29 30 31 32 33 34 35 36 37 38 39 40 41 42 43 44 45 46 47 48 49 50

000
ASUS41 KOKX 292105
RWROKX

REGIONAL WEATHER ROUNDUP
NATIONAL WEATHER SERVICE NEW YORK NY
500 PM EDT FRI AUG 29 2014

NOTE: "FAIR" INDICATES FEW OR NO CLOUDS BELOW 12,000 FEET WITH NO
SIGNIFICANT WEATHER AND/OR OBSTRUCTIONS TO VISIBILITY.

NYZ071-072-176-178-NJZ106-104-292200-
NEW YORK CITY METRO AREA


CITY           SKY/WX    TMP DP  RH WIND       PRES   REMARKS
CENTRAL PARK   SUNNY     76  51  41 S6        30.20R
LAGUARDIA APRT MOSUNNY   76  52  43 SE9       30.17R
KENNEDY INTL   MOSUNNY   74  53  48 S12       30.19S
NEWARK/LIBERTY PTSUNNY   77  52  41 SE8       30.16S
BRNX BOT. GARD   N/A     77  50  38 S3        30.17S
TETERBORO      SUNNY     79  50  36 S10       30.15S
$$

NYZ177-179-078>081-292200-
LONG ISLAND NEW YORK

CITY           SKY/WX    TMP DP  RH WIND       PRES   REMARKS
FARMINGDALE    SUNNY     72  55  55 SE8       30.19R
ISLIP          MOSUNNY   72  54  53 E12       30.18R
SHIRLEY        SUNNY     73  51  46 SE8       30.20S
WESTHAMPTON    SUNNY     72  50  45 SE8       30.21R
MONTAUK POINT    N/A     72  55  55 VRB5      30.22R
$$

NYZ052-065-067-292200-
HUDSON VALLEY

CITY           SKY/WX    TMP DP  RH WIND       PRES   REMARKS
WHITE PLAINS   MOSUNNY   75  51  43 SE8       30.18R
NEWBURGH       NOT AVBL
MONTGOMERY     SUNNY     78  51  38 VRB3      30.16S
POUGHKEEPSIE   SUNNY     77  53  43 VRB3      30.16S
ALBANY         MOSUNNY   76  54  46 W3        30.17S
$$

NJZ001-105-106-008-010-013-015-019>022-104-292200-
NEW JERSEY

CITY           SKY/WX    TMP DP  RH WIND       PRES   REMARKS
NEWARK/LIBERTY PTSUNNY   77  52  41 SE8       30.16S
TETERBORO      SUNNY     79  50  36 S10       30.15S
CALDWELL       SUNNY     78  48  34 S7        30.16S
MORRISTOWN     MOSUNNY   79  48  34 CALM      30.16S
SOMERVILLE     MOSUNNY   81  49  32 VRB5      30.14S
LINDEN         FAIR      82  52  35 SE9       30.18S
SUSSEX         LGT RAIN  79  53  40 VRB3      30.17S
ANDOVER          N/A     76  53  44 CALM      30.17S
TRENTON        MOSUNNY   76  51  41 S6        30.16S
MILLVILLE      PTSUNNY   76  56  49 SE7       30.17S
ATLANTIC CITY  PTSUNNY   73  61  65 E8        30.18R
WRIGHTSTOWN    MOSUNNY   75  59  57 E8        30.15R
TOMS RIVER     SUNNY     73  55  53 E3        30.19S
BELMAR         SUNNY     72  52  49 SE7       30.19S
$$

PAZ047>061-062-071-292200-
EASTERN PENNSYLVANIA

CITY           SKY/WX    TMP DP  RH WIND       PRES   REMARKS
PHILADELPHIA   PTSUNNY   79  51  37 S7        30.16S
ALLENTOWN      PTSUNNY   78  52  40 N5        30.17S
SCRANTON       MOSUNNY   76  50  40 W5        30.17S
$$

CTZ002-004>006-009-010-012-RIZ004-006-007-MAZ004-011-015-292200-
SOUTHERN NEW ENGLAND
 IN CT

CITY           SKY/WX    TMP DP  RH WIND       PRES   REMARKS
BRADLEY INTL   MOSUNNY   77  50  38 CALM      30.16S
HARTFORD       SUNNY     76  52  43 VRB3      30.16S
DANBURY        SUNNY     75  53  46 SE7       30.18F
WTRBRY/OXFORD  MOSUNNY   73  55  53 S9        30.20F
BRIDGEPORT     SUNNY     74  53  48 S9        30.18F
MERIDEN        SUNNY     77  53  43 S10       30.18R
NEW HAVEN      MOSUNNY   76  54  46 S7        30.19S
CHESTER        FAIR      73  52  46 S6        30.20S
GROTON         SUNNY     70  55  59 S8        30.19R
WILLIMANTIC    SUNNY     74  52  46 CALM      30.18S

 IN RI

CITY           SKY/WX    TMP DP  RH WIND       PRES   REMARKS
PROVIDENCE     MOSUNNY   73  56  54 S12       30.19R
BLOCK ISLAND   SUNNY     70  55  60 SE8       30.21R
WESTERLY       SUNNY     71  55  56 S9        30.21R

 IN MA

CITY           SKY/WX    TMP DP  RH WIND       PRES   REMARKS
BOSTON         MOSUNNY   66  55  67 E14       30.21R
WORCESTER      MOSUNNY   70  51  51 S5        30.20S
WESTFIELD      SUNNY     75  52  44 CALM      30.17S
PROVINCETOWN   SUNNY     66  54  63 NE9       30.22S
NANTUCKET      SUNNY     68  53  58 NE9       30.20S
$$

ANZ330-335-338-340-345-350-353-355-292200-
COASTAL MARINE OBSERVATIONS


STATION/POSITION TIME  SKY/WX   TEMP    WIND        PRES    VSBY  WAVE
                                AIR SEA DIR/SP/G                  HT/PER
                 (UTC)          (F)     (DEG/KT/KT) (MB)    (MI)  (FT/S)
NY HARB ENTRANCE NOT AVBL
4S FIRE IS       NOT AVBL
23SW MTP         2100                                 N/A           3/10
HUDSON CANYON    2100            69 73   40/  6/  8 1022.2          4/ 9
EXECUTION ROCKS  2100            74 76   80/  6/  8   N/A
WESTERN LI SOUND 2100            74     120/  6/  8   N/A           1
CENTRAL LI SOUND 2000            72 73  140/  6/  8   N/A           1
EASTERN LI SOUND 2000            70 68  180/  6/  8   N/A
ROBBINS REEF     2100            71     160/ 14/ 16   N/A
$$


>>>>>>>>>>>>>>>>>>>>>>>>>>>> KEY <<<<<<<<<<<<<<<<<<<<<<<<<<<
>                                                          <
>     SKY/WX - SKY CONDITION/PRESENT WEATHER               <
>     TMP    - TEMPERATURE IN FAHRENHEIT                   <
>     DP     - DEWPOINT IN FAHRENHEIT                      <
>     RH     - RELATIVE HUMIDITY IN PERCENT                <
>     WIND   - DIRECTION AND SPEED IN MPH                  <
>     PRES   - MEAN SEA LEVEL PRESSURE IN INCHES OF HG     <
>     WCI    - WIND CHILL INDEX                            <
>     VSB    - VISIBILITY IN MILES                         <
>     HX     - HEAT INDEX                                  <
>     TC     - TEMPERATURE IN CELSIUS                      <
>     VRB    - VARIABLE WIND DIRECTION                     <
>                                                          <
>>>>>>>>>>>>>>>>>>>>>>>>>>>> KEY <<<<<<<<<<<<<<<<<<<<<<<<<<<




USA.gov is the U.S. government's official web portal to all federal, state and local government web resources and services.